AAL591 KLAX-KDCA

Flight info

Callsign AAL591
Flight time N/A
Altitude 33000
Route ORCKA5 LAS J146 DVC PUB HLC/N0455F350 RBA SPI VHP J80 BOWRR OTMAN J30 BUCKO FRDMM6
Aircraft A21N/M-SDE3FGHIRWY/LB1

Departure

Time 2026-04-22 21:15
Airport Los Angeles International Airport (KLAX)

Arrival

Time N/A
Airport Ronald Reagan Washington National Airport (KDCA)
Time Latitude Longitude Altitude Speed Heading
2026-04-22 20:29 33.94210 -118.40940 125 ft 0 kts 264°
2026-04-22 21:03 33.94210 -118.40939 125 ft 1 kts 264°
2026-04-22 21:04 33.94212 -118.40922 125 ft 2 kts 264°
2026-04-22 21:04 33.94211 -118.40904 125 ft 2 kts 285°
2026-04-22 21:04 33.94206 -118.40887 125 ft 2 kts 300°
2026-04-22 21:04 33.94199 -118.40875 125 ft 1 kts 318°
2026-04-22 21:05 33.94188 -118.40869 125 ft 2 kts 341°
2026-04-22 21:05 33.94175 -118.40862 125 ft 0 kts 333°
2026-04-22 21:05 33.94169 -118.40859 125 ft 0 kts 331°
2026-04-22 21:05 33.94164 -118.40855 125 ft 0 kts 291°
2026-04-22 21:06 33.94163 -118.40847 125 ft 1 kts 236°
2026-04-22 21:06 33.94169 -118.40842 125 ft 0 kts 186°
2026-04-22 21:06 33.94174 -118.40842 125 ft 0 kts 167°
2026-04-22 21:06 33.94178 -118.40843 125 ft 0 kts 172°
2026-04-22 21:09 33.94147 -118.40840 125 ft 9 kts 176°
2026-04-22 21:09 33.94074 -118.40833 126 ft 10 kts 175°
2026-04-22 21:09 33.94001 -118.40824 126 ft 10 kts 174°
2026-04-22 21:09 33.93926 -118.40813 126 ft 10 kts 167°
2026-04-22 21:10 33.93866 -118.40760 126 ft 11 kts 139°
2026-04-22 21:10 33.93812 -118.40696 126 ft 11 kts 104°
2026-04-22 21:10 33.93820 -118.40583 125 ft 17 kts 83°
2026-04-22 21:10 33.93837 -118.40413 124 ft 20 kts 83°
2026-04-22 21:11 33.93854 -118.40240 121 ft 21 kts 83°
2026-04-22 21:11 33.93873 -118.40054 119 ft 23 kts 83°
2026-04-22 21:11 33.93895 -118.39847 116 ft 26 kts 83°
2026-04-22 21:11 33.93917 -118.39631 113 ft 25 kts 83°
2026-04-22 21:12 33.93931 -118.39487 111 ft 25 kts 84°
2026-04-22 21:12 33.93961 -118.39208 108 ft 25 kts 83°
2026-04-22 21:12 33.93981 -118.39000 107 ft 24 kts 84°
2026-04-22 21:12 33.94001 -118.38800 106 ft 23 kts 83°
2026-04-22 21:13 33.94022 -118.38603 105 ft 23 kts 83°
2026-04-22 21:13 33.94041 -118.38413 104 ft 22 kts 83°
2026-04-22 21:13 33.94060 -118.38229 103 ft 22 kts 83°
2026-04-22 21:13 33.94076 -118.38068 103 ft 13 kts 83°
2026-04-22 21:14 33.94021 -118.38004 102 ft 12 kts 183°
2026-04-22 21:14 33.93980 -118.38068 103 ft 10 kts 264°
2026-04-22 21:14 33.93970 -118.38177 103 ft 27 kts 263°
2026-04-22 21:14 33.93915 -118.38699 106 ft 96 kts 263°
2026-04-22 21:15 33.93811 -118.39729 115 ft 151 kts 263°
2026-04-22 21:15 33.93666 -118.41172 255 ft 184 kts 262°
2026-04-22 21:15 33.93502 -118.42712 825 ft 189 kts 261°
2026-04-22 21:15 33.93335 -118.44238 1595 ft 186 kts 262°
2026-04-22 21:16 33.93175 -118.45792 2149 ft 192 kts 262°
2026-04-22 21:16 33.92884 -118.47405 2504 ft 208 kts 253°
2026-04-22 21:16 33.92342 -118.49101 2809 ft 229 kts 249°
2026-04-22 21:16 33.91692 -118.50934 3192 ft 247 kts 248°
2026-04-22 21:17 33.90989 -118.52872 3720 ft 260 kts 248°
2026-04-22 21:17 33.90249 -118.54861 4404 ft 262 kts 248°
2026-04-22 21:17 33.89444 -118.56870 4985 ft 269 kts 240°
2026-04-22 21:17 33.88084 -118.58392 5723 ft 277 kts 207°
2026-04-22 21:18 33.86181 -118.58785 6457 ft 286 kts 174°
2026-04-22 21:18 33.84323 -118.57926 7146 ft 293 kts 145°
2026-04-22 21:18 33.82993 -118.56110 7784 ft 299 kts 116°
2026-04-22 21:18 33.82530 -118.53701 8390 ft 301 kts 85°
2026-04-22 21:19 33.83093 -118.51296 8989 ft 299 kts 56°
2026-04-22 21:19 33.84492 -118.49510 9563 ft 294 kts 27°
2026-04-22 21:19 33.86261 -118.48321 10179 ft 296 kts 23°
2026-04-22 21:19 33.88118 -118.47090 10566 ft 310 kts 24°
2026-04-22 21:20 33.90043 -118.45792 10858 ft 326 kts 25°
2026-04-22 21:20 33.92014 -118.44299 11129 ft 345 kts 33°
2026-04-22 21:20 33.93832 -118.42278 11397 ft 366 kts 45°
2026-04-22 21:20 33.95399 -118.39764 11662 ft 384 kts 52°
2026-04-22 21:21 33.96915 -118.37058 11995 ft 396 kts 53°
2026-04-22 21:21 33.98435 -118.34306 12498 ft 401 kts 53°
2026-04-22 21:21 34.00001 -118.31493 13065 ft 405 kts 53°
2026-04-22 21:21 34.01589 -118.28672 13600 ft 409 kts 52°
2026-04-22 21:22 34.03208 -118.25816 14122 ft 414 kts 52°
2026-04-22 21:22 34.04842 -118.22936 14623 ft 419 kts 52°
2026-04-22 21:22 34.06491 -118.20028 15122 ft 423 kts 52°
2026-04-22 21:22 34.08151 -118.17093 15599 ft 428 kts 52°
2026-04-22 21:23 34.09830 -118.14123 16064 ft 433 kts 52°
2026-04-22 21:23 34.11535 -118.11099 16582 ft 436 kts 52°
2026-04-22 21:23 34.13244 -118.08077 17026 ft 441 kts 52°
2026-04-22 21:23 34.14986 -118.04993 17467 ft 445 kts 52°
2026-04-22 21:24 34.16743 -118.01879 17883 ft 450 kts 52°
2026-04-22 21:24 34.18507 -117.98746 18317 ft 455 kts 52°
2026-04-22 21:24 34.20287 -117.95583 18770 ft 458 kts 52°
2026-04-22 21:24 34.22078 -117.92392 19232 ft 461 kts 52°
2026-04-22 21:25 34.23882 -117.89175 19654 ft 464 kts 52°
2026-04-22 21:25 34.25685 -117.85957 20087 ft 467 kts 52°
2026-04-22 21:25 34.27515 -117.82690 20507 ft 471 kts 52°
2026-04-22 21:25 34.29343 -117.79426 20898 ft 474 kts 52°
2026-04-22 21:26 34.31208 -117.76090 21307 ft 477 kts 52°
2026-04-22 21:26 34.33070 -117.72755 21680 ft 481 kts 52°
2026-04-22 21:26 34.34919 -117.69439 22037 ft 484 kts 52°
2026-04-22 21:26 34.36876 -117.66061 22395 ft 487 kts 51°
2026-04-22 21:27 34.38861 -117.62749 22762 ft 490 kts 50°
2026-04-22 21:27 34.40867 -117.59425 23119 ft 492 kts 50°
2026-04-22 21:27 34.42871 -117.56097 23461 ft 495 kts 50°
2026-04-22 21:27 34.44918 -117.52684 23804 ft 498 kts 50°
2026-04-22 21:28 34.46948 -117.49285 24146 ft 501 kts 50°
2026-04-22 21:28 34.48986 -117.45866 24489 ft 503 kts 50°
2026-04-22 21:28 34.51038 -117.42414 24807 ft 506 kts 50°
2026-04-22 21:28 34.53096 -117.38953 25146 ft 508 kts 50°
2026-04-22 21:29 34.55157 -117.35479 25454 ft 510 kts 50°
2026-04-22 21:29 34.57218 -117.31999 25738 ft 512 kts 51°
2026-04-22 21:29 34.59318 -117.28449 26005 ft 515 kts 51°
2026-04-22 21:29 34.61408 -117.24915 26309 ft 516 kts 51°
2026-04-22 21:30 34.63494 -117.21378 26686 ft 515 kts 50°
2026-04-22 21:30 34.65549 -117.17896 27025 ft 514 kts 50°
2026-04-22 21:30 34.67621 -117.14381 27401 ft 513 kts 50°
2026-04-22 21:30 34.69721 -117.10815 27764 ft 512 kts 50°
2026-04-22 21:31 34.71786 -117.07307 28107 ft 511 kts 50°
2026-04-22 21:31 34.73823 -117.03841 28445 ft 511 kts 50°
2026-04-22 21:31 34.75901 -117.00299 28777 ft 510 kts 50°
2026-04-22 21:31 34.77958 -116.96798 29081 ft 510 kts 50°
2026-04-22 21:32 34.80005 -116.93304 29371 ft 510 kts 50°
2026-04-22 21:32 34.82052 -116.89805 29681 ft 509 kts 50°
2026-04-22 21:32 34.84200 -116.86130 29997 ft 509 kts 50°
2026-04-22 21:32 34.86265 -116.82591 30274 ft 509 kts 50°
2026-04-22 21:33 34.88321 -116.79063 30563 ft 509 kts 50°
2026-04-22 21:33 34.90354 -116.75591 30848 ft 508 kts 49°
2026-04-22 21:33 34.92502 -116.72218 31088 ft 506 kts 45°
2026-04-22 21:33 34.94813 -116.68993 31288 ft 505 kts 42°
2026-04-22 21:34 34.97184 -116.65857 31530 ft 505 kts 41°
2026-04-22 21:34 34.99578 -116.62734 31775 ft 505 kts 41°
2026-04-22 21:34 35.02004 -116.59572 31990 ft 505 kts 41°
2026-04-22 21:34 35.04384 -116.56457 32163 ft 507 kts 41°
2026-04-22 21:35 35.06781 -116.53307 32338 ft 508 kts 41°
2026-04-22 21:35 35.09184 -116.50143 32490 ft 510 kts 41°
2026-04-22 21:35 35.11611 -116.46935 32655 ft 511 kts 41°
2026-04-22 21:35 35.14034 -116.43726 32844 ft 512 kts 41°
2026-04-22 21:36 35.16437 -116.40542 33000 ft 513 kts 41°
2026-04-22 21:36 35.18881 -116.37301 33029 ft 514 kts 42°
2026-04-22 21:36 35.23735 -116.30851 33042 ft 515 kts 42°
2026-04-22 21:37 35.28567 -116.24423 33050 ft 515 kts 42°
2026-04-22 21:37 35.33398 -116.17979 33052 ft 515 kts 42°
2026-04-22 21:38 35.38246 -116.11504 33048 ft 516 kts 42°
2026-04-22 21:38 35.43082 -116.05037 33051 ft 518 kts 42°